User: anonymous   Login
Location: Unspecified
(0.0000°N, 0.0000°E)
Time: 07:42:48
(UTC+00:00)
Language:

IGS 7A - Orbit

View from above orbital plane
View from above orbital plane
View from above satellite
View from above satellite

Ground track
Ground track

The orbit data is extracted from the following two-line orbital elements,

1 37954U 11075A   18229.86852322 0.00000000  00000-0  00000-0 0    03
2 37954  97.4939 305.6808 0002001 346.1043  13.8955 15.17616264    05
Epoch (UTC): 17 August 2018 20:50:40
Eccentricity: 0.0002001
inclination: 97.4939°
perigee height: 511 km
apogee height: 514 km
right ascension of ascending node: 305.6808°
argument of perigee: 346.1043°
revolutions per day: 15.17616264
mean anomaly at epoch: 13.8955°
orbit number at epoch: 0

The dashed part of the orbit path shows where the satellite is in the earth's shadow,  

DLR